FW6209 Weather Reports


Display with metric or nautical units.
time (UTC)temp
F
wind
direction
speed
MPH
gust
MPH
rain 1hr
in
rain 24hr
in
rain mn
in
humidity
%
barometer
mb
20210729060434 68 355 1.0 4.0 0.00 0.00 0.00 71 1016.3
20210729055933 68 355 1.0 4.0 0.00 0.00 0.00 70 1016.1
20210729055434 68 191 0.0 3.0 0.00 0.00 0.00 69 1016.0
20210729054934 68 132 0.0 1.0 0.00 0.00 0.00 69 1015.9
20210729054435 69 132 0.0 0.0 0.00 0.00 0.00 69 1016.1
20210729053935 69 132 0.0 1.0 0.00 0.00 0.00 68 1016.4
20210729053430 69 132 0.0 1.0 0.00 0.00 0.00 67 1016.4
20210729052931 70 132 1.0 2.0 0.00 0.00 0.00 67 1016.4
20210729052429 70 132 1.0 2.0 0.00 0.00 0.00 67 1016.4
20210729051931 70 209 0.0 2.0 0.00 0.00 0.00 65 1016.4
20210729051429 70 209 0.0 2.0 0.00 0.00 0.00 55 1016.5
20210729050929 70 209 0.0 1.0 0.00 0.00 0.00 51 1016.5
20210729050430 70 209 0.0 1.0 0.00 0.00 0.00 50 1016.4
20210729045929 70 209 0.0 2.0 0.00 0.00 0.00 50 1016.3
20210729045431 70 209 0.0 2.0 0.00 0.00 0.00 49 1016.3
20210729044925 70 209 0.0 1.0 0.00 0.00 0.00 49 1016.5
20210729044427 70 209 1.0 3.0 0.00 0.00 0.00 57 1016.4
20210729043927 71 209 1.0 3.0 0.00 0.00 0.00 62 1016.5
20210729043426 71 190 0.0 1.0 0.00 0.00 0.00 52 1016.4
20210729042927 71 190 0.0 2.0 0.00 0.00 0.00 52 1016.5
20210729042425 71 190 0.0 2.0 0.00 0.00 0.00 54 1016.5
20210729041926 71 190 0.0 2.0 0.00 0.00 0.00 59 1016.3
20210729041425 71 190 1.0 2.0 0.00 0.00 0.00 58 1016.3
20210729040927 72 190 1.0 3.0 0.00 0.00 0.00 57 1016.4
20210729040423 72 190 0.0 3.0 0.00 0.00 0.00 57 1016.3
20210729035922 72 247 0.0 1.0 0.00 0.00 0.00 60 1016.3
20210729035422 73 247 0.0 0.0 0.00 0.00 0.00 59 1016.1
20210729034921 73 247 0.0 1.0 0.00 0.00 0.00 59 1016.1
20210729034423 73 247 0.0 1.0 0.00 0.00 0.00 58 1016.0
20210729033922 73 247 0.0 1.0 0.00 0.00 0.00 48 1016.1
20210729033423 74 247 0.0 1.0 0.00 0.00 0.00 55 1016.1
20210729032922 74 247 0.0 1.0 0.00 0.00 0.00 55 1016.0
20210729032424 74 246 0.0 1.0 0.00 0.00 0.00 52 1016.0
20210729031922 74 246 1.0 2.0 0.00 0.00 0.00 52 1015.8
20210729031423 74 246 1.0 2.0 0.00 0.00 0.00 40 1015.9
20210729030921 74 246 1.0 4.0 0.00 0.00 0.00 40 1015.8
20210729030423 74 246 2.0 4.0 0.00 0.00 0.00 47 1015.7
20210729025920 75 261 1.0 4.0 0.00 0.00 0.00 46 1015.6
20210729025419 75 259 0.0 2.0 0.00 0.00 0.00 45 1015.7
20210729024920 75 259 1.0 3.0 0.00 0.00 0.00 47 1015.6
20210729024420 76 259 1.0 3.0 0.00 0.00 0.00 49 1015.7
20210729023922 76 259 1.0 3.0 0.00 0.00 0.00 49 1015.7
20210729023415 76 260 1.0 3.0 0.00 0.00 0.00 51 1015.7
20210729022908 77 355 1.0 2.0 0.00 0.00 0.00 52 1015.7
20210729022405 77 5 1.0 3.0 0.00 0.00 0.00 52 1015.7
20210729021857 78 5 2.0 4.0 0.00 0.00 0.00 51 1015.7
20210729021352 79 5 1.0 4.0 0.00 0.00 0.00 50 1015.6
20210729020845 80 267 1.0 3.0 0.00 0.00 0.00 48 1015.6
20210729020340 80 238 1.0 4.0 0.00 0.00 0.00 47 1015.6
20210729015834 80 232 1.0 4.0 0.00 0.00 0.00 47 1015.5
20210729015328 81 25 1.0 3.0 0.00 0.00 0.00 46 1015.6
20210729014822 81 25 1.0 2.0 0.00 0.00 0.00 46 1015.5
20210729014314 81 30 2.0 6.0 0.00 0.00 0.00 46 1015.5
20210729013807 82 30 2.0 6.0 0.00 0.00 0.00 46 1015.6
20210729013305 83 15 2.0 4.0 0.00 0.00 0.00 45 1015.7
20210729012803 84 26 2.0 4.0 0.00 0.00 0.00 43 1015.7
20210729012301 84 333 2.0 4.0 0.00 0.00 0.00 43 1015.8
20210729011801 85 347 2.0 4.0 0.00 0.00 0.00 43 1015.8
20210729011301 85 275 2.0 8.0 0.00 0.00 0.00 41 1015.8
20210729010804 85 313 2.0 8.0 0.00 0.00 0.00 40 1015.8
20210729010300 86 291 2.0 4.0 0.00 0.00 0.00 39 1015.8
20210729005758 86 263 2.0 5.0 0.00 0.00 0.00 39 1015.7
20210729005258 87 263 2.0 5.0 0.00 0.00 0.00 38 1015.8
20210729004757 87 263 2.0 5.0 0.00 0.00 0.00 38 1015.8
20210729004300 87 225 1.0 5.0 0.00 0.00 0.00 35 1015.8
20210729003800 87 305 2.0 3.0 0.00 0.00 0.00 36 1015.8
20210729003258 87 325 1.0 4.0 0.00 0.00 0.00 36 1015.8
20210729002758 87 5 2.0 6.0 0.00 0.00 0.00 38 1015.7
20210729002259 87 56 4.0 8.0 0.00 0.00 0.00 38 1015.8
20210729001758 87 292 4.0 8.0 0.00 0.00 0.00 38 1015.7
20210729001258 87 266 3.0 8.0 0.00 0.00 0.00 38 1015.7
20210729000751 88 297 4.0 8.0 0.00 0.00 0.00 38 1015.8
20210729000244 88 244 4.0 9.0 0.00 0.00 0.00 39 1015.8
20210728235744 88 254 3.0 9.0 0.00 0.00 0.00 39 1016.0
20210728235243 88 287 2.0 7.0 0.00 0.00 0.00 38 1015.9
20210728234741 88 238 2.0 8.0 0.00 0.00 0.00 38 1015.9
20210728234240 88 342 3.0 10.0 0.00 0.00 0.00 38 1016.0
20210728233739 87 286 4.0 10.0 0.00 0.00 0.00 38 1015.9
20210728233237 87 282 4.0 9.0 0.00 0.00 0.00 37 1015.8
20210728232739 87 300 4.0 9.0 0.00 0.00 0.00 38 1016.0
20210728232238 87 286 4.0 10.0 0.00 0.00 0.00 39 1015.9
20210728231736 88 234 4.0 10.0 0.00 0.00 0.00 39 1015.9
20210728231236 88 255 3.0 9.0 0.00 0.00 0.00 39 1016.0
20210728230737 88 144 3.0 9.0 0.00 0.00 0.00 39 1016.0
20210728230237 88 346 3.0 9.0 0.00 0.00 0.00 37 1016.1
20210728225736 88 283 3.0 9.0 0.00 0.00 0.00 37 1016.3
20210728225235 88 290 4.0 10.0 0.00 0.00 0.00 37 1016.3
20210728224738 88 246 4.0 10.0 0.00 0.00 0.00 37 1016.4
20210728224235 89 226 4.0 9.0 0.00 0.00 0.00 37 1016.4
20210728223738 88 213 4.0 9.0 0.00 0.00 0.00 39 1016.4
20210728223232 88 252 3.0 8.0 0.00 0.00 0.00 40 1016.4
20210728222725 88 265 3.0 8.0 0.00 0.00 0.00 40 1016.4
20210728222220 88 243 3.0 9.0 0.00 0.00 0.00 40 1016.5
20210728221719 89 187 3.0 10.0 0.00 0.00 0.00 39 1016.7
20210728221218 89 296 3.0 10.0 0.00 0.00 0.00 39 1016.6
20210728220718 88 264 3.0 8.0 0.00 0.00 0.00 41 1016.7
20210728220217 88 223 3.0 9.0 0.00 0.00 0.00 41 1016.8
20210728215719 88 265 3.0 9.0 0.00 0.00 0.00 41 1017.0
20210728215215 89 268 3.0 9.0 0.00 0.00 0.00 41 1017.0
20210728214715 89 237 2.0 7.0 0.00 0.00 0.00 42 1016.9
20210728214215 89 355 3.0 7.0 0.00 0.00 0.00 41 1016.9
20210728213715 89 287 3.0 9.0 0.00 0.00 0.00 42 1017.0
20210728213215 88 234 3.0 9.0 0.00 0.00 0.00 42 1017.0
20210728212715 88 332 3.0 9.0 0.00 0.00 0.00 42 1017.0
20210728212214 88 329 3.0 8.0 0.00 0.00 0.00 43 1016.9
20210728211713 88 209 3.0 9.0 0.00 0.00 0.00 43 1017.1
20210728211213 88 301 3.0 9.0 0.00 0.00 0.00 42 1017.1
20210728210715 88 24 3.0 8.0 0.00 0.00 0.00 42 1017.2
20210728210214 88 310 3.0 10.0 0.00 0.00 0.00 43 1017.1
20210728205707 89 285 3.0 10.0 0.00 0.00 0.00 42 1017.2
20210728205200 89 232 3.0 8.0 0.00 0.00 0.00 42 1017.3
20210728204658 89 223 3.0 8.0 0.00 0.00 0.00 42 1017.3
20210728204157 88 300 3.0 11.0 0.00 0.00 0.00 43 1017.3
20210728203657 88 317 4.0 11.0 0.00 0.00 0.00 43 1017.3
20210728203158 88 307 3.0 8.0 0.00 0.00 0.00 44 1017.4
20210728202659 88 227 3.0 8.0 0.00 0.00 0.00 43 1017.5
20210728202153 88 303 3.0 8.0 0.00 0.00 0.00 44 1017.6
20210728201654 88 235 3.0 9.0 0.00 0.00 0.00 43 1017.6
20210728201153 87 254 4.0 9.0 0.00 0.00 0.00 45 1017.5
20210728200652 87 238 4.0 8.0 0.00 0.00 0.00 45 1017.5
20210728200151 88 227 4.0 10.0 0.00 0.00 0.00 45 1017.5
20210728195654 88 249 3.0 10.0 0.00 0.00 0.00 46 1017.5
20210728195151 88 223 2.0 9.0 0.00 0.00 0.00 46 1017.5
20210728194653 88 245 3.0 9.0 0.00 0.00 0.00 46 1017.5
20210728194152 87 264 3.0 9.0 0.00 0.00 0.00 47 1017.5
20210728193653 88 281 3.0 8.0 0.00 0.00 0.00 46 1017.5
20210728193152 87 279 3.0 6.0 0.00 0.00 0.00 48 1017.5
20210728192652 87 284 3.0 6.0 0.00 0.00 0.00 48 1017.6
20210728192146 87 238 4.0 8.0 0.00 0.00 0.00 48 1017.6
20210728191640 87 245 4.0 8.0 0.00 0.00 0.00 48 1017.6
20210728190628 87 279 2.0 7.0 0.00 0.00 0.00 48 1017.7
20210728190128 87 275 3.0 9.0 0.00 0.00 0.00 49 1017.7
20210728185625 87 278 3.0 9.0 0.00 0.00 0.00 49 1017.6
20210728185126 85 269 3.0 8.0 0.00 0.00 0.00 52 1017.8
20210728184626 85 254 3.0 8.0 0.00 0.00 0.00 52 1017.8
20210728184125 85 322 3.0 8.0 0.00 0.00 0.00 52 1017.9
20210728183626 85 217 4.0 8.0 0.00 0.00 0.00 52 1017.9
20210728183125 85 239 4.0 9.0 0.00 0.00 0.00 52 1017.9
20210728182625 84 309 4.0 10.0 0.00 0.00 0.00 54 1018.0
20210728182125 84 250 4.0 10.0 0.00 0.00 0.00 53 1017.9
20210728181627 84 298 4.0 8.0 0.00 0.00 0.00 53 1017.9
20210728181126 84 260 4.0 8.0 0.00 0.00 0.00 53 1017.9
20210728180626 85 254 3.0 9.0 0.00 0.00 0.00 53 1017.9
20210728180125 85 255 3.0 9.0 0.00 0.00 0.00 53 1017.8
20210728175626 84 215 3.0 10.0 0.00 0.00 0.00 54 1017.8
20210728175128 84 275 4.0 10.0 0.00 0.00 0.00 54 1017.7
20210728174625 84 266 4.0 10.0 0.00 0.00 0.00 53 1017.7
20210728174124 85 242 4.0 10.0 0.00 0.00 0.00 53 1017.8
20210728173618 86 253 3.0 6.0 0.00 0.00 0.00 51 1017.7
20210728173111 86 232 2.0 6.0 0.00 0.00 0.00 51 1017.8
20210728172607 86 268 2.0 6.0 0.00 0.00 0.00 49 1017.7
20210728172059 85 217 2.0 6.0 0.00 0.00 0.00 51 1017.7
20210728171554 85 246 1.0 3.0 0.00 0.00 0.00 52 1017.7
20210728171047 84 269 1.0 5.0 0.00 0.00 0.00 52 1017.8
20210728170543 83 350 1.0 5.0 0.00 0.00 0.00 55 1017.8
20210728170035 83 351 2.0 4.0 0.00 0.00 0.00 56 1017.7
20210728165529 82 317 2.0 4.0 0.00 0.00 0.00 57 1017.8
20210728165023 82 5 2.0 4.0 0.00 0.00 0.00 59 1017.8
20210728164517 82 0 2.0 5.0 0.00 0.00 0.00 61 1017.8
20210728164011 82 355 2.0 5.0 0.00 0.00 0.00 61 1017.8
20210728163505 82 319 1.0 4.0 0.00 0.00 0.00 61 1017.8
20210728163000 81 5 1.0 4.0 0.00 0.00 0.00 62 1017.7
20210728162455 81 284 2.0 4.0 0.00 0.00 0.00 63 1017.7
20210728161948 81 277 2.0 4.0 0.00 0.00 0.00 63 1017.7
20210728161442 80 327 1.0 3.0 0.00 0.00 0.00 64 1017.8
20210728160935 80 323 1.0 2.0 0.00 0.00 0.00 64 1017.8
20210728160430 79 313 1.0 2.0 0.00 0.00 0.00 63 1017.7
20210728155924 79 313 1.0 2.0 0.00 0.00 0.00 64 1017.7
20210728155418 78 318 1.0 4.0 0.00 0.00 0.00 65 1017.8
20210728154912 78 19 2.0 4.0 0.00 0.00 0.00 66 1017.7
20210728154406 78 16 1.0 3.0 0.00 0.00 0.00 65 1017.8
20210728153859 78 5 1.0 3.0 0.00 0.00 0.00 67 1017.8
20210728153354 77 58 1.0 3.0 0.00 0.00 0.00 67 1017.8
20210728152848 76 58 1.0 3.0 0.00 0.00 0.00 66 1017.7
20210728152342 76 58 1.0 3.0 0.00 0.00 0.00 69 1017.7
20210728151835 75 57 1.0 2.0 0.00 0.00 0.00 71 1017.7
20210728151329 74 57 1.0 2.0 0.00 0.00 0.00 73 1017.7
20210728150823 74 58 0.0 2.0 0.00 0.00 0.00 75 1017.6
20210728150317 73 58 1.0 2.0 0.00 0.00 0.00 77 1017.6
20210728145812 73 58 1.0 3.0 0.00 0.00 0.00 77 1017.5
20210728145306 72 58 1.0 3.0 0.00 0.00 0.00 78 1017.5
20210728144800 72 53 1.0 3.0 0.00 0.00 0.00 78 1017.5
20210728144254 72 52 1.0 3.0 0.00 0.00 0.00 78 1017.5
20210728143747 71 52 0.0 2.0 0.00 0.00 0.00 79 1017.4
20210728143243 71 65 0.0 1.0 0.00 0.00 0.00 79 1017.4
20210728142736 71 65 0.0 2.0 0.00 0.00 0.00 80 1017.4
20210728142229 71 65 1.0 3.0 0.00 0.00 0.00 80 1017.4
20210728141724 70 65 0.0 3.0 0.00 0.00 0.00 81 1017.3
20210728141217 70 103 0.0 2.0 0.00 0.00 0.00 83 1017.3
20210728140712 69 242 0.0 2.0 0.00 0.00 0.00 85 1017.3
20210728140206 69 242 1.0 2.0 0.00 0.00 0.00 86 1017.3
20210728135700 68 242 1.0 2.0 0.00 0.00 0.00 86 1017.2
20210728135153 67 242 0.0 2.0 0.00 0.00 0.00 87 1017.3
20210728134648 67 242 0.0 1.0 0.00 0.00 0.00 88 1017.3
20210728134141 67 242 0.0 2.0 0.00 0.00 0.00 87 1017.2
20210728133636 67 278 0.0 2.0 0.00 0.00 0.00 87 1017.2
20210728133131 66 278 1.0 2.0 0.00 0.00 0.00 87 1017.1
20210728132623 66 278 1.0 2.0 0.00 0.00 0.00 87 1017.1
20210728132117 66 278 1.0 2.0 0.00 0.00 0.00 87 1017.0
20210728131611 66 278 1.0 2.0 0.00 0.00 0.00 87 1017.0
20210728131106 66 278 0.0 2.0 0.00 0.00 0.00 87 1017.0
20210728130600 66 278 0.0 1.0 0.00 0.00 0.00 87 1017.0
20210728130053 66 278 0.0 1.0 0.00 0.00 0.00 87 1017.0
20210728125549 66 278 0.0 0.0 0.00 0.00 0.00 87 1016.9
20210728125043 66 278 0.0 1.0 0.00 0.00 0.00 86 1016.9
20210728124535 67 278 0.0 1.0 0.00 0.00 0.00 86 1016.8
20210728124029 67 278 0.0 1.0 0.00 0.01 0.00 86 1016.8
20210728123524 67 278 0.0 1.0 0.00 0.01 0.00 86 1016.8
20210728123017 67 278 0.0 1.0 0.00 0.01 0.00 86 1016.7
20210728122511 67 278 0.0 2.0 0.00 0.01 0.00 86 1016.8
20210728122006 67 278 1.0 2.0 0.00 0.01 0.00 86 1016.7
20210728121500 67 278 1.0 2.0 0.00 0.01 0.00 87 1016.7
20210728120954 67 277 1.0 2.0 0.00 0.01 0.00 87 1016.6
20210728120448 67 277 0.0 2.0 0.00 0.01 0.00 88 1016.6
20210728115944 67 277 0.0 1.0 0.00 0.01 0.00 88 1016.5
20210728115436 67 277 0.0 1.0 0.00 0.01 0.00 88 1016.5
20210728114929 66 277 0.0 1.0 0.00 0.01 0.00 88 1016.5
20210728114424 66 277 1.0 2.0 0.00 0.01 0.00 89 1016.6
20210728113918 66 277 0.0 2.0 0.00 0.01 0.00 88 1016.5
20210728113411 66 277 0.0 1.0 0.00 0.01 0.00 88 1016.5
20210728112907 66 277 0.0 1.0 0.00 0.01 0.00 88 1016.4
20210728112359 66 277 0.0 0.0 0.00 0.01 0.00 88 1016.6
20210728111854 66 277 0.0 0.0 0.00 0.01 0.00 87 1016.5
20210728111347 66 277 0.0 0.0 0.00 0.01 0.00 87 1016.4
20210728110842 66 277 0.0 0.0 0.00 0.01 0.00 87 1016.5
20210728110335 66 277 0.0 0.0 0.00 0.01 0.00 86 1016.5
20210728105829 67 277 0.0 0.0 0.00 0.01 0.00 86 1016.5
20210728105323 67 277 0.0 1.0 0.00 0.01 0.00 86 1016.5
20210728104818 67 277 0.0 2.0 0.00 0.01 0.00 86 1016.5
20210728104312 67 277 1.0 2.0 0.00 0.01 0.00 86 1016.4
20210728103806 67 277 1.0 2.0 0.00 0.01 0.00 86 1016.4
20210728103259 67 277 0.0 2.0 0.00 0.01 0.00 86 1016.5
20210728102754 67 277 0.0 2.0 0.00 0.01 0.00 86 1016.4
20210728102248 67 277 0.0 2.0 0.00 0.01 0.00 86 1016.4
20210728101741 67 277 0.0 2.0 0.00 0.01 0.00 85 1016.4
20210728101235 67 210 0.0 0.0 0.00 0.01 0.00 85 1016.4
20210728100729 67 210 0.0 0.0 0.00 0.01 0.00 85 1016.5
20210728100223 67 210 0.0 0.0 0.00 0.01 0.00 85 1016.4
20210728095717 68 210 0.0 0.0 0.00 0.01 0.00 85 1016.5
20210728095211 68 210 0.0 1.0 0.00 0.01 0.00 84 1016.6
20210728094706 68 210 0.0 1.0 0.00 0.01 0.00 84 1016.6
20210728094200 68 210 0.0 1.0 0.00 0.01 0.00 84 1016.5
20210728093654 68 210 0.0 1.0 0.00 0.01 0.00 83 1016.6
20210728093147 68 210 0.0 2.0 0.00 0.01 0.00 83 1016.6
20210728092641 68 210 1.0 2.0 0.00 0.01 0.00 83 1016.6
20210728092136 68 209 1.0 2.0 0.00 0.01 0.00 83 1016.6
20210728091629 68 209 0.0 2.0 0.00 0.01 0.00 83 1016.7
20210728091124 68 209 0.0 2.0 0.00 0.01 0.00 82 1016.7
20210728090617 69 206 1.0 3.0 0.00 0.01 0.00 82 1016.7
20210728090111 69 206 1.0 3.0 0.00 0.01 0.00 82 1016.6
20210728085606 69 244 0.0 2.0 0.00 0.01 0.00 81 1016.7
20210728085100 69 338 0.0 1.0 0.00 0.01 0.00 82 1016.6
20210728084553 69 338 0.0 1.0 0.00 0.01 0.00 82 1016.6
20210728084045 69 338 0.0 1.0 0.00 0.01 0.00 83 1016.6
20210728083540 69 338 0.0 0.0 0.00 0.01 0.00 83 1016.5
20210728083034 69 338 0.0 0.0 0.00 0.01 0.00 83 1016.5
20210728082528 70 338 0.0 0.0 0.00 0.01 0.00 83 1016.5
20210728082022 70 338 0.0 1.0 0.00 0.01 0.00 83 1016.4
20210728081522 70 338 0.0 1.0 0.00 0.01 0.00 82 1016.6
20210728081021 70 338 0.0 0.0 0.00 0.01 0.00 82 1016.6
20210728080524 70 338 0.0 1.0 0.00 0.01 0.00 82 1016.5
20210728080019 70 338 0.0 1.0 0.00 0.01 0.00 81 1016.6
20210728075520 70 338 0.0 1.0 0.00 0.01 0.00 81 1016.7
20210728075020 71 338 0.0 0.0 0.00 0.01 0.00 81 1016.8
20210728074520 71 338 0.0 1.0 0.00 0.01 0.00 81 1016.9
20210728074019 71 338 0.0 1.0 0.00 0.01 0.00 81 1016.9
20210728073520 71 338 0.0 0.0 0.00 0.01 0.00 81 1016.8
20210728073020 71 338 0.0 0.0 0.00 0.01 0.00 81 1016.8
20210728072519 70 338 0.0 1.0 0.00 0.01 0.00 82 1016.8
20210728072014 70 338 1.0 2.0 0.00 0.01 0.00 82 1016.8
20210728071513 70 338 1.0 2.0 0.00 0.01 0.00 83 1016.8
20210728071014 70 338 1.0 2.0 0.00 0.01 0.00 83 1016.8
20210728070512 70 338 1.0 2.0 0.00 0.01 0.00 83 1016.8
20210728070011 70 338 1.0 3.0 0.00 0.01 0.00 83 1016.8
20210728065507 70 338 1.0 3.0 0.00 0.01 0.01 83 1016.7
20210728065009 70 39 0.0 0.0 0.00 0.01 0.01 81 1016.7
20210728064503 70 42 0.0 0.0 0.00 0.01 0.01 81 1016.9
20210728063957 71 42 0.0 1.0 0.00 0.01 0.01 81 1016.8
20210728063451 71 42 0.0 1.0 0.00 0.01 0.01 80 1016.9
20210728062945 71 42 0.0 0.0 0.00 0.01 0.01 80 1016.8
20210728062439 71 42 0.0 0.0 0.00 0.01 0.01 80 1016.7
20210728061933 71 42 0.0 0.0 0.00 0.01 0.01 80 1016.8
20210728061427 71 42 0.0 0.0 0.00 0.01 0.01 80 1016.8
20210728060921 71 42 0.0 0.0 0.00 0.01 0.01 80 1016.8